User: anonymous   Login
Location: Fort Wayne
(41.1310°N, 85.1290°W)
Time: 10:02:01
(UTC-04:00)
Language:

CZ-2C R/B - Orbit

View from above orbital plane
View from above orbital plane
View from above satellite
View from above satellite

Ground track
Ground track

The orbit data is extracted from the following two-line orbital elements,

1 36089U 09061B   16241.15551615  .00000121  00000-0  41639-4 0  9996
2 36089  98.0518 250.0444 0081047 227.5615 174.3654 14.49592958359256
Epoch (UTC): 28 August 2016 03:43:56
Eccentricity: 0.0081047
inclination: 98.0518°
perigee height: 669 km
apogee height: 784 km
right ascension of ascending node: 250.0444°
argument of perigee: 227.5615°
revolutions per day: 14.49592958
mean anomaly at epoch: 174.3654°
orbit number at epoch: 35925

The dashed part of the orbit path shows where the satellite is in the earth's shadow,  

DLR